Weather observations for the past three days for
Rawlins Municipal Airport
Imperial (Metric)
Date Time (mdt) Wind (mph) Vis. (mi.) Weather Sky Cond. Temperature (ºF) Relative Humidity Wind Chill (°F) Heat Index (°F) Pressure Precipitation (in)
Air Dwpt 6 hour altimeter (in) sea level (mb) 1 hr 3 hr 6 hr
Max. Min.
23 22:53 N 10 10.00 Fair CLR 73 39 29% 30.36 1017.2
23 21:53 NW 16 10.00 Fair CLR 73.9 37.9 27% 30.36 1017.6
23 20:53 NW 7 9.00 Mostly Cloudy BKN120 78.1 34 20% 77 30.34 1017.1
23 19:53 NW 8 7.00 Overcast OVC110 80.1 33.1 18% 79 30.33 1017.0
23 18:53 NW 21 G 32 7.00 Fair and Breezy CLR 82 33.1 17% 80 30.3 1016.9
23 17:53 N 3 7.00 Fair CLR 84.9 30 90 81 14% 82 30.29 1016.3
23 16:53 Calm 7.00 Fair CLR 87.1 28.9 12% 83 30.29 1016.0
23 15:53 SW 10 7.00 Fair CLR 88 28.9 12% 84 30.31 1016.0
23 14:53 Calm 6.00 Fair with Haze CLR 87.1 30 13% 83 30.32 1016.7
23 13:53 Vrbl 3 5.00 Fair with Haze CLR 84 30.9 15% 81 30.32 1016.8
23 12:53 Calm 6.00 Fair with Haze CLR 84 33.1 16% 81 30.33 1016.9
23 11:53 Calm 5.00 Fair with Haze CLR 81 35.1 81 46 19% 79 30.34 1017.1
23 10:53 SE 5 6.00 Fair with Haze CLR 75 39 27% 77 30.36 1017.9
23 09:53 Vrbl 3 6.00 Fair with Haze CLR 70 39.9 34% 30.36 1019.1
23 08:53 Vrbl 3 5.00 Fair with Haze CLR 63 41 45% 30.37 1019.4
23 07:53 Calm 6.00 Fair with Haze CLR 57.9 42.1 56% 30.36 1018.9
23 06:53 NW 3 5.00 Fair with Haze CLR 50 39 66% 30.35 1019.0
23 05:53 Calm 6.00 Fair with Haze CLR 46.9 37 62.1 46.9 69% 30.34 1018.7
23 04:53 N 5 7.00 Fair CLR 48 37 66% 47 30.33 1018.0
23 03:53 NE 5 7.00 Fair CLR 51.1 37.9 61% 30.32 1017.6
23 02:53 NE 5 7.00 Fair CLR 51.1 37.9 61% 30.31 1017.5
23 01:53 Calm 8.00 Fair CLR 53.1 37.9 57% 30.32 1017.5
23 00:53 Calm 8.00 Fair CLR 55 39 55% 30.31 1017.2
22 23:53 Calm 8.00 Fair CLR 60.1 39 80.1 60.1 46% 30.31 1016.9
22 22:53 N 6 7.00 Fair CLR 64 35.1 34% 30.3 1016.3
22 21:53 N 10 6.00 Fair with Haze CLR 62.1 33.1 34% 30.3 1017.2
22 20:53 NW 10 4.00 Fair with Haze CLR 66 32 28% 30.29 1016.8
22 19:53 N 7 6.00 Fair with Haze CLR 75 34 22% 76 30.28 1016.3
22 18:53 NE 7 5.00 Fair with Haze CLR 78.1 32 19% 77 30.29 1016.8
22 17:53 NE 10 5.00 Fair with Haze CLR 80.1 32 82.9 73.9 17% 78 30.29 1016.8
22 16:53 Vrbl 6 G 16 6.00 Fair with Haze CLR 81 35.1 19% 79 30.3 1016.8
22 15:53 NE 13 6.00 Partly Cloudy with Haze SCT090 80.1 35.1 20% 79 30.31 1017.3
22 14:53 N 14 G 20 7.00 A Few Clouds FEW090 79 35.1 20% 78 30.33 1017.8
22 13:53 NW 8 7.00 Partly Cloudy SCT080 79 37 22% 78 30.34 1018.1
22 11:53 NE 7 7.00 Fair CLR 73.9 37.9 75 46 27% 30.36 1019.3
22 10:53 Calm 10.00 Fair CLR 73 44.1 35% 30.38 1019.5
22 09:53 Calm 9.00 Fair CLR 66 45 47% 30.39 1020.3
22 08:53 E 5 9.00 Fair CLR 59 45 60% 30.39 1021.3
22 07:53 Calm 8.00 Fair CLR 55.9 46 70% 30.39 1020.5
22 06:53 Calm 9.00 Fair CLR 50 44.1 80% 30.39 1021.2
22 05:53 Calm 10.00 Fair CLR 46 41 54 46 83% 30.38 1020.8
22 04:53 NW 5 10.00 Fair CLR 48 42.1 80% 47 30.37 1020.5
22 03:53 NW 8 10.00 Fair CLR 48.9 42.1 77% 46 30.37 1020.6
22 02:53 N 6 10.00 Fair CLR 51.1 43 74% 30.38 1020.2
22 01:53 NW 3 10.00 Fair CLR 52 43 72% 30.38 1019.9
22 00:53 NE 6 10.00 Fair CLR 53.1 44.1 72% 30.38 1020.2
21 23:53 Calm 10.00 Fair CLR 54 43 77 54 67% 30.38 1020.5
21 22:53 NE 7 10.00 Fair CLR 59 43 56% 30.38 1020.7
21 21:53 NE 10 10.00 Fair CLR 63 42.1 47% 30.38 1020.5
21 20:53 NE 8 10.00 Fair CLR 63 39.9 43% 30.37 1020.4
21 19:53 NE 10 10.00 Fair CLR 71.1 39 31% 30.36 1019.4
21 18:53 NE 13 10.00 Fair CLR 72 39 30% 30.37 1020.0
21 17:53 NE 17 G 24 10.00 Fair CLR 77 39 80.1 68 26% 77 30.37 1019.8
21 16:53 E 14 10.00 Mostly Cloudy BKN100 75.9 42.1 30% 77 30.37 1019.8
21 15:53 NE 22 G 36 10.00 Overcast and Breezy SCT070 OVC110 72 41 33% 30.39 1021.0
21 14:53 N 8 10.00 Partly Cloudy FEW070 SCT090 75.9 43 31% 77 30.37 1019.6
21 13:53 Calm 10.00 Fair CLR 78.1 41 27% 78 30.38 1019.7
21 12:53 Calm 10.00 Fair CLR 75 44.1 33% 77 30.41 1020.7
21 11:53 Vrbl 5 10.00 A Few Clouds FEW110 69.1 48 69.1 48 47% 30.43 1021.9
21 10:53 NE 6 10.00 Overcast OVC110 64 48 56% 30.44 1023.0
21 09:53 Calm 10.00 Mostly Cloudy FEW060 SCT090 BKN110 60.1 46 60% 30.45 1023.8
21 08:53 SW 3 10.00 Overcast BKN090 OVC110 57.9 50 75% 30.45 1023.9
21 07:53 Calm 10.00 Mostly Cloudy BKN100 55.9 48 75% 30.45 1023.8
21 06:53 NW 7 10.00 Fair CLR 52 46.9 83% 30.44 1024.0
21 05:53 Calm 10.00 Fair CLR 48.9 45 55.9 46.9 86% 30.43 1023.6
21 04:53 Calm 10.00 Fair CLR 48.9 45 86% 30.43 1021.8
21 03:53 NE 7 10.00 Fair CLR 48.9 45 86% 46 30.42 1020.9
21 02:53 Calm 10.00 Fair CLR 52 46.9 83% 30.43 1021.1
21 01:53 NW 6 10.00 Fair CLR 54 46.9 77% 30.44 1021.5
21 00:53 N 3 10.00 Fair CLR 54 48.9 83% 30.43 1021.4
20 23:53 N 7 10.00 Fair CLR 55.9 48.9 68 55 77% 30.44 1021.5
Date Time (mdt) Wind (mph) Vis. (mi.) Weather Sky Cond. Air Dwpt Max. Min. Relative Humidity Wind Chill (°F) Heat Index (°F) altimeter (in) sea level (mb) 1 hr 3 hr 6 hr
6 hour
Temperature (ºF) Pressure Precipitation (in)